STARLINK-32116

decayed
NORAD ID: 60075 Int'l Des: 2024-113 Owner: SPXS Country: US Constellation: starlink
LEOCIRCULAR
Gruppe

Über STARLINK-32116

Beschreibung wird geladen...

Höhenverlauf

Altitude vs Time

uPlot chart will show altitude changes over time

Zweizeiliger Elementsatz

1 60075U 24113S 24192.40427049 .45572493 12784-4 20309-3 0 9999
2 60075 53.1284 302.1943 0006149 258.2345 213.5912 16.56021312 4211
Epoch: 10. Juli 2024 • Age: 10386 hours

Aktueller Status

Position data unavailable
Startdatum 19. Juni 2024
Alter 1.2 years
Verglühungsdatum 10. Juli 2024
Typ internet

Technische Details

Klassifizierung Payload
Masse 730.00 kg
Trockenmasse 700.00 kg
Gesamtmasse 730.00 kg
Länge 0.30 m
Durchmesser 4.10 m
Spannweite 29.00 m
Form Box + pan
Hersteller SPXS
Bus-Typ Starlink V2M
Phasenstatus Unknown Transfer Status
Besitzer/Staat SPXS/US

Große Konstellationen

Loading constellations...